sat.trackr.live / text

‹ back to catalog

STARLINK-31856

NORAD 59960 · 2024-107R

PAYLOAD ACTIVE UNKNOWN

§ Identity

Operator
Country
US
Launch date
2024-06-05
Launch site
AFETR
Launch vehicle
Mass (kg)
RCS (m²)

Purposes: comms

External: N2YO · Heavens-Above · Gunter

§ Orbital elements

Epoch: 2026-09-21T21:32:02.377536Z

Period
93.85 min
Inclination
53.1583°
Eccentricity
0.0001386
Mean motion
15.34386212 rev/d
Perigee alt
461.8 km
Apogee alt
463.7 km
Semi-major
6,840.9 km
B*
3.0454e-5
RAAN
230.8420°
Arg perigee
89.2930°
Mean anomaly
270.8232°
Rev number
12,988

§ Raw data

STARLINK-318561 59960U 24107R   26264.89724974  .00000652  00000+0  30454-4 0  99952 59960  53.1583 230.8420 0001386  89.2930 270.8232 15.34386212129881

JSON: /api/v1/satellites/59960 · /tle

For live sub-satellite position, see the globe view (requires WebGL).

§ Visibility from observer

Set your observer location to see the next 7 days of passes ≥ 10°. The values pass through the URL so the page stays shareable.

No JS? Fill the form by hand. The geolocation button needs JavaScript.